Printer-friendly version

IAU Minor Planet Center

Minor Planet Center

MPEC 2000-H26: 2000 GP82

The following Minor Planet Electronic Circular may be linked-to from your own Web pages, but must not otherwise be redistributed electronically.


Read MPEC 2000-H25 Read MPEC 2000-H27


M.P.E.C. 2000-H26                                Issued 2000 Apr. 22, 18:16 UT

     The Minor Planet Electronic Circulars contain information on unusual
         minor planets and routine data on comets.  They are published
   on behalf of Commission 20 of the International Astronomical Union by the
          Minor Planet Center, Smithsonian Astrophysical Observatory,
                          Cambridge, MA 02138, U.S.A.

             Prepared using the Tamkin Foundation Computer Network

             BMARSDEN@CFA.HARVARD.EDU or GWILLIAMS@CFA.HARVARD.EDU
          URL http://cfa-www.harvard.edu/iau/mpc.html  ISSN 1523-6714

                                   2000 GP82

                           Revision to MPEC 2000-G39

Observations:
     K00G82P 1 1995 04 23.24722 13 21 41.97 +32 29 21.7                      675
     K00G82P 1 1995 04 23.30278 13 21 36.80 +32 28 14.1                      675

Observer details:
675 Palomar Mountain.  Trail located and measured by A. Boattini, G. Forti,
    M. Tombelli, G. D'Abramo, L. Tesi.  1.2-m Schmidt.

Orbital elements:
2000 GP82
Epoch 2000 Feb. 26.0 TT = JDT 2451600.5                 Williams
M  47.57995              (2000.0)            P               Q
n   0.59703084     Peri.  332.86795     +0.02671326     -0.97790551
a   1.3968128      Node   114.97313     +0.95363843     -0.03726638
e   0.3934573      Incl.   13.22157     +0.29976682     +0.20569889
P   1.65           H   16.9           G   0.15           U   4
Residuals in seconds of arc
950423 675  0.2-  0.1-    000406 704  0.1-  0.2+    000408 734  1.1-  0.6+
950423 675  0.2+  0.0     000406 704  0.1-  0.2+    000408 704  0.4+  0.6+
000404 704  0.3+  0.6+    000406 704  0.4+  0.3+    000408 402  0.1-  0.0
000404 704  0.8-  1.0+    000406 704  0.6-  0.7-    000408 402  0.2-  0.4-
000404 704  0.3-  0.1-    000407 118  0.7-  0.5+    000408 402  0.1+  0.3+
000404 704  0.0   1.0-    000407 118  0.0   0.0     000408 402  0.3-  0.1+
000404 704  0.2+  0.3+    000407 118  0.2-  0.4+    000408 557  0.5-  0.4-
000405 557  0.3-  0.0     000407 704  1.1-  0.0     000408 557  0.3-  0.6-
000405 557  0.2+  0.1+    000407 704  0.0   0.1+    000408 557  0.1-  0.1-
000405 557  0.5+  0.3+    000407 704  1.8-  1.4-    000409 046  0.3-  0.2-
000405 557  0.1-  0.3+    000407 678  0.5+  1.5-    000409 046  1.4-  0.3-
000405 704  0.5+  0.1+    000407 704  0.4+  0.3+    000409 046  0.4-  0.4+
000405 704  0.2+  0.2+    000407 678  0.3-  1.5-    000409 046  0.5+  1.1-
000405 850  0.5+  0.2-    000407 704  0.0   0.0     000410 621  0.0   0.5+
000405 704  0.0   0.2-    000407 678  0.5-  0.6-    000410 621  0.0   0.4+
000405 854  1.1+  0.1-    000407 678  0.3+  0.0     000410 621  0.0   0.4+
000405 854  0.3+  0.9-    000407 699  0.3-  0.3+    000411 608  0.1+  0.0
000405 854  1.5+  0.8-    000407 699  0.3-  0.2+    000411 608  1.1+  0.1+
000405 704  0.2+  0.8+    000407 699  0.6-  0.2-    000411 608  1.4+  0.0
000405 704  0.2+  0.3+    000407 699  0.8-  0.1-    000411 402  0.5+  0.1-
000405 704  0.3+  0.1+    000407 587  0.2-  0.7-    000411 402  0.2+  0.2+
000405 704  0.2+  0.2+    000407 587  0.2+  0.7-    000411 402  0.5+  0.1-
000405 673  0.7+  1.6+    000408 621  0.3-  0.2-    000414 540  0.1+  0.0
000405 850  1.8-  0.0     000408 621  0.4-  0.0     000414 540  0.0   0.1+
000405 673  0.5+  1.2+    000408 621  0.1-  0.1-    000414 540  0.4+  0.7-
000405 704  0.7+  0.3+    000408 704  0.2-  0.7-    000414 540  0.1-  0.0
000405 850  1.5+  0.1+    000408 704  0.2+  0.3+    000414 540  0.5+  0.2+
000405 704  0.1-  0.5-    000408 704  0.0   0.9+    000421 046  0.1+  0.9+
000405 704  0.1+  0.4+    000408 734 (0.2-  2.3-)   000421 046  0.1-  0.2+
000405 688  0.2+  0.2+    000408 734  0.0   0.2+    000421 046  0.3-  0.3-
000405 688  0.4+  0.1+    000408 704  0.3+  0.2+
000406 704  0.8-  0.5-    000408 734  0.3-  0.1-

Ephemeris:
2000 GP82                a,e,i = 1.40, 0.39, 13                  q = 0.8472
Date    TT    R. A. (2000) Decl.     Delta      r     Elong.  Phase     V
2000 04 16    15 08.33   +20 59.0    0.565    1.489   141.7    24.7    17.7
2000 04 26    14 46.21   +20 56.6    0.605    1.541   144.7    22.2    17.8
2000 05 06    14 26.44   +19 44.4    0.662    1.589   143.1    22.4    18.1
2000 05 16    14 11.31   +17 39.6    0.736    1.635   138.2    24.4    18.4
2000 05 26    14 01.55   +15 03.4    0.824    1.677   131.6    26.8    18.8
2000 06 05    13 56.82   +12 12.2    0.924    1.717   124.5    29.1    19.2
2000 06 15    13 56.44   +09 16.7    1.035    1.753   117.5    30.9    19.5
2000 06 25    13 59.58   +06 23.4    1.153    1.786   110.7    32.2    19.8
2000 07 05    14 05.55   +03 35.2    1.277    1.816   104.1    32.9    20.1
2000 07 15    14 13.83   +00 53.7    1.405    1.843    97.9    33.1    20.4
2000 07 25    14 23.97   -01 40.5    1.534    1.867    91.8    32.9    20.6
2000 08 04    14 35.67   -04 07.1    1.664    1.888    86.0    32.4    20.8
2000 08 14    14 48.73   -06 26.0    1.792    1.905    80.3    31.6    20.9
2000 08 24    15 02.94   -08 36.8    1.918    1.920    74.8    30.6    21.0
2000 09 03    15 18.22   -10 39.6    2.040    1.931    69.4    29.3    21.2
2000 09 13    15 34.48   -12 33.9    2.156    1.939    64.0    27.8    21.2

Gareth V. Williams           (C) Copyright 2000 MPC           M.P.E.C. 2000-H26

Read MPEC 2000-H25 Read MPEC 2000-H27


Our Web policy. Index to the CBAT/MPC/ICQ pages.


Valid HTML 4.01!